Retour au catalogue

COSMOS 249 DEB

ActifLEO
NORAD 3874·DEBRIS·🇷🇺 Russia

Lancé Oct 20, 1968 depuis Baikonur Cosmodrome

Loading…

Prochains Passages (prochaines 24 heures)

TLE

FraisSource: Space-Track

Époque: Sep 14, 2026, 00:08 UTC

1 03874U 68091BH  26257.00566491  .00000662  00000-0  69892-3 0  9990
2 03874  62.2529 107.8389 0604964 211.9155 144.3835 13.21054369712405

Suivez COSMOS 249 DEB en temps réel avec AllMySat

Download on the App Store